TRANSIT 11 DEB, 11991

Orbit data source: Space-Track

TRANSIT 11 DEB, 11991 is space debris in LEO originally from a launch on Fri, 28 Jan 1966 UTC launched from the Air Force Western Test Range (AFWTR). Debris objects in space refer to the collection of defunct objects orbiting the Earth. Examples of debris include non-operational satellites, rocket bodies, and fragments generated from explosions, collisions, or faulty payload assembly.

Loading next visibility...
Identifier
11991, 1966-005H
Orbit
LEO
Country
Flag of USUS
Related business
Manufacturer
Unknown
Mission
Spacecraft
Bus & Motor
Unknown
Mass
Unknown
Launch date (UTC)
1966-01-28 (60 years ago)
Launch vehicle
Unknown
Launch site
Air Force Western Test Range (AFWTR)
Object type
Payload
Rocket body
Debris
Shape & HBR
Unknown shape, 0.2 m
Radar Cross Section
Medium (>0.1 m² and <1 m²)

Expand to show TLE details & history
Last TLE update: 22 hours ago

TLE from 22 hours ago
0 TRANSIT 11 DEB
1 11991U 66005H   26034.30582705  .00001235  00000-0  96573-3 0  9997
2 11991  90.1665 340.1555 0176644  32.5017  89.4483 13.84670456  2876
Epoch: 2026-02-03T07:20Z
TLE epoch observation values (Epoch: 2026-02-03T07:20:23.457Z)
Latitude
56.12051°
Longitude
-83.18422°
Altitude
957.857 km
Speed
7.378 km/s
True Right ascension
10h 41m 36s
True Declination
55° 57' 56"
Sunlit
Object was in full shadow at epoch
Visualization orbit readout
Latitude
Unknown
Longitude
Unknown
Altitude
Unknown
Speed
Unknown
Apparent Right ascension
Unknown
Apparent Declination
Unknown
Sunlit
N/A
Visualization observer readout
Local Sidereal Time
06:51:19
Azimuth
Unknown
Elevation
Unknown
Doppler factor
Unknown
Orbital elements
Apogee altitude
1,073.713 km
Perigee altitude
815.018 km
Semi-major axis
7,322.503 km
Eccentricity
0.01766
Inclination
90.1665°
RAAN
340.1555°
Arg. of periapsis
32.5017°
True anomaly
91.47241°
Mean anomaly
89.4483°
Eccentric anomaly
90.46036°
Mean motion
3.46381 °/min
Orbital period
103.93 mins
BSTAR
0.00096573
Loading maneuver chart data...
Computing Atmospheric mass density...
Loading historical data...
Loading historical data...
Loading historical data...
Loading historical data...
Loading historical data...
Loading historical data...
Loading historical data...

Documentation

Showing up to 5 results
|